Date String (YYYY-MM-DD hh:mm:ss) UTC,Instrument flags,Ambient pressure (hPa),Sample flow (lpm),Bypass flow (lpm),Sample temperature (°C),Ambient temperature (°C),ASC tube jacket temperature (°C),LED temperature (°C),Box temperature (°C),Sample RH (%),Span deviation,Mass concentration (μg/m³),Mass concentration (μg/m³),Mass concentration (μg/m³)
DateTimeUTC,F1_M11,P_M11,Q1_M11,Q2_M11,T1_M11,T2_M11,T3_M11,T4_M11,T5_M11,U1_M11,ZSPAN_M11,X0_M11,X2_M11,X1_M11
2021-09-07 00:00:00,,0826.7,4.99,0.00,28.9,25.6,00.0,37.9,30.3,12.9,0001.2,0024.44,0016.15,0015.19
2021-09-07 00:01:00,,0826.7,5.00,0.00,28.8,26.0,00.0,37.9,30.3,13.2,0001.3,0024.76,0016.17,0015.20
2021-09-07 00:02:00,,0826.7,5.00,0.00,28.8,26.4,00.0,37.9,30.5,13.4,0001.6,0025.33,0016.21,0015.20
2021-09-07 00:03:00,,0826.7,5.00,0.00,28.9,26.9,00.0,37.9,30.6,13.7,0001.9,0026.83,0016.23,0015.20
2021-09-07 00:04:00,,0826.7,5.01,0.00,28.9,27.3,00.0,37.9,30.7,13.6,0002.3,0026.44,0016.22,0015.19
2021-09-07 00:05:00,,0826.7,5.00,0.00,29.0,27.7,00.0,37.9,30.8,14.2,0002.4,0026.02,0016.23,0015.21
2021-09-07 00:06:00,,0826.7,5.00,0.00,29.0,27.7,00.0,37.9,30.9,14.2,0002.4,0026.73,0016.28,0015.21
2021-09-07 00:07:00,,0826.7,5.01,0.00,29.0,26.3,00.0,37.9,30.5,14.4,0002.0,0027.10,0016.34,0015.22
2021-09-07 00:08:00,,0826.8,5.00,0.00,28.8,25.5,00.0,37.9,30.2,14.4,0001.9,0027.07,0016.33,0015.22
2021-09-07 00:09:00,,0826.8,5.00,0.00,28.8,25.9,00.0,37.9,30.3,14.2,0001.4,0027.27,0016.29,0015.21
2021-09-07 00:10:00,,0826.8,5.01,0.00,28.8,26.3,00.0,37.9,30.4,14.6,0001.2,0027.65,0016.29,0015.21
2021-09-07 00:11:00,,0826.8,4.98,0.00,28.8,26.8,00.0,37.9,30.6,14.2,0000.8,0027.97,0016.26,0015.20
2021-09-07 00:12:00,,0826.9,5.01,0.00,28.9,27.2,00.0,37.9,30.7,14.4,0000.4,0027.85,0016.24,0015.20
2021-09-07 00:13:00,,0827.1,5.01,0.00,28.9,27.6,00.0,37.9,30.8,14.5,-000.0,0027.80,0016.25,0015.20
2021-09-07 00:14:00,,0826.9,4.99,0.00,29.0,27.9,00.0,37.9,30.9,14.6,-000.4,0026.63,0016.28,0015.19
2021-09-07 00:15:00,,0826.8,5.00,0.00,29.0,27.2,00.0,37.9,30.7,15.0,-000.4,0025.99,0016.28,0015.20
2021-09-07 00:16:00,,0826.9,5.00,0.00,28.9,25.7,00.0,37.9,30.3,15.1,-000.6,0026.05,0016.28,0015.20
2021-09-07 00:17:00,,0826.9,5.00,0.00,28.8,25.6,00.0,37.9,30.2,15.1,-000.5,0025.48,0016.31,0015.22
2021-09-07 00:18:00,,0826.8,5.01,0.00,28.8,26.1,00.0,37.9,30.4,15.0,-000.3,0025.08,0016.34,0015.23
2021-09-07 00:19:00,,0826.9,5.00,0.00,28.7,26.5,00.0,37.8,30.4,15.3,-000.2,0025.29,0016.39,0015.22
2021-09-07 00:20:00,,0827.0,5.00,0.00,28.8,27.0,00.0,37.8,30.6,15.3,0000.3,0025.36,0016.47,0015.25
2021-09-07 00:21:00,,0827.0,5.00,0.00,28.8,27.4,00.0,37.8,30.7,15.3,0000.7,0025.07,0016.46,0015.26
2021-09-07 00:22:00,,0826.9,5.01,0.00,28.9,27.8,00.0,37.9,30.8,15.5,0001.0,0024.81,0016.53,0015.28
2021-09-07 00:23:00,,0827.0,5.00,0.00,29.0,28.1,00.0,37.9,30.9,15.6,0001.5,0025.00,0016.54,0015.30
2021-09-07 00:24:00,,0827.1,4.99,0.00,29.0,27.5,00.0,37.9,30.8,15.7,0001.5,0025.87,0016.57,0015.32
2021-09-07 00:25:00,,0827.1,4.99,0.00,28.9,25.7,00.0,37.9,30.3,15.9,0001.9,0026.83,0016.58,0015.35
2021-09-07 00:26:00,,0826.9,5.01,0.00,28.8,25.6,00.0,37.9,30.2,16.1,0002.1,0027.58,0016.68,0015.38
2021-09-07 00:27:00,,0827.0,5.00,0.00,28.8,26.0,00.0,37.8,30.3,16.4,0002.4,0027.53,0016.71,0015.41
2021-09-07 00:28:00,,0827.0,4.99,0.00,28.7,26.5,00.0,37.8,30.4,16.1,0002.3,0028.26,0016.72,0015.45
2021-09-07 00:29:00,,0827.1,5.00,0.00,28.8,26.9,00.0,37.8,30.5,16.2,0002.1,0028.70,0016.77,0015.48
2021-09-07 00:30:00,,0827.3,5.00,0.00,28.8,27.3,00.0,37.8,30.7,16.0,0002.0,0028.32,0016.79,0015.51
2021-09-07 00:31:00,,0827.3,5.01,0.00,28.9,27.7,00.0,37.9,30.8,15.9,0001.5,0028.19,0016.77,0015.52
2021-09-07 00:32:00,,0827.1,4.99,0.00,29.0,28.0,00.0,37.9,30.9,16.0,0001.3,0028.16,0016.83,0015.56
2021-09-07 00:33:00,,0827.1,5.00,0.00,29.0,27.5,00.0,37.9,30.8,15.9,0001.6,0027.70,0016.79,0015.56
2021-09-07 00:34:00,,0827.1,5.01,0.00,28.9,25.8,00.0,37.9,30.4,15.7,0002.1,0027.79,0016.80,0015.57
2021-09-07 00:35:00,,0827.1,5.00,0.00,28.8,25.5,00.0,37.9,30.2,15.6,0002.1,0028.36,0016.85,0015.60
2021-09-07 00:36:00,,0827.1,5.00,0.00,28.8,26.0,00.0,37.9,30.3,15.8,0001.6,0028.98,0016.86,0015.63
2021-09-07 00:37:00,,0827.1,5.01,0.00,28.7,26.4,00.0,37.8,30.4,16.0,0001.1,0029.21,0016.85,0015.65
2021-09-07 00:38:00,,0827.1,4.99,0.00,28.8,26.9,00.0,37.8,30.5,15.9,0000.5,0029.37,0016.87,0015.65
2021-09-07 00:39:00,,0827.2,4.99,0.00,28.8,27.3,00.0,37.8,30.7,15.6,0000.5,0029.02,0016.89,0015.65
2021-09-07 00:40:00,,0827.2,5.01,0.00,28.9,27.7,00.0,37.9,30.8,15.3,0000.3,0028.40,0016.91,0015.68
2021-09-07 00:41:00,,0827.2,5.00,0.00,29.0,28.0,00.0,37.9,30.9,15.4,0000.3,0028.34,0016.91,0015.73
2021-09-07 00:42:00,,0827.2,5.00,0.00,29.0,28.2,00.0,37.9,31.0,14.6,0000.4,0028.07,0016.86,0015.73
2021-09-07 00:43:00,,0827.2,4.99,0.00,29.0,26.9,00.0,37.9,30.7,14.7,0000.3,0028.21,0016.85,0015.73
2021-09-07 00:44:00,,0827.2,5.01,0.00,28.9,25.5,00.0,37.9,30.3,14.8,-000.3,0029.61,0016.89,0015.75
2021-09-07 00:45:00,,0827.2,4.99,0.00,28.8,25.7,00.0,37.9,30.3,14.7,-000.5,0029.42,0016.96,0015.77
2021-09-07 00:46:00,,0827.2,4.99,0.00,28.8,26.2,00.0,37.9,30.4,14.8,-000.4,0027.49,0016.89,0015.76
2021-09-07 00:47:00,,0827.2,5.01,0.00,28.8,26.6,00.0,37.8,30.5,14.7,-000.4,0025.91,0016.83,0015.74
2021-09-07 00:48:00,,0827.2,4.99,0.00,28.8,27.1,00.0,37.8,30.6,14.4,-000.3,0025.30,0016.80,0015.70
2021-09-07 00:49:00,,0827.2,5.00,0.00,28.9,27.5,00.0,37.9,30.8,14.3,-000.1,0025.57,0016.76,0015.70
2021-09-07 00:50:00,,0827.2,5.00,0.00,29.0,27.8,00.0,37.9,30.9,14.5,0000.6,0025.53,0016.73,0015.67
2021-09-07 00:51:00,,0827.3,5.00,0.00,29.0,28.0,00.0,37.9,30.9,14.7,0001.4,0025.25,0016.66,0015.65
2021-09-07 00:52:00,,0827.3,5.00,0.00,29.0,26.9,00.0,37.9,30.6,15.1,0001.4,0025.39,0016.68,0015.64
2021-09-07 00:53:00,,0827.2,5.00,0.00,28.9,25.4,00.0,37.9,30.2,16.6,0001.4,0025.92,0016.78,0015.66
2021-09-07 00:54:00,,0827.3,5.00,0.00,28.8,25.6,00.0,37.9,30.2,16.3,0001.9,0026.01,0016.82,0015.65
2021-09-07 00:55:00,,0827.3,4.98,0.00,28.7,26.0,00.0,37.8,30.3,15.5,0002.1,0025.44,0016.82,0015.64
2021-09-07 00:56:00,,0827.4,5.00,0.00,28.7,26.5,00.0,37.8,30.4,15.6,0001.9,0026.01,0016.79,0015.62
2021-09-07 00:57:00,,0827.4,5.00,0.00,28.8,27.0,00.0,37.8,30.6,15.8,0002.8,0026.10,0016.81,0015.64
2021-09-07 00:58:00,,0827.4,5.00,0.00,28.8,27.4,00.0,37.8,30.7,15.6,0003.1,0026.18,0016.89,0015.67
2021-09-07 00:59:00,,0827.4,4.99,0.00,28.9,27.7,00.0,37.9,30.8,16.1,0003.3,0027.33,0016.91,0015.70
